2021-09-02 00:02:55 r, 19.47m,0000000001Hz,0000334916c,0000000.727s, 032.2C,00002191
2021-09-02 00:12:54 r, 19.43m,0000000002Hz,0000322572c,0000000.700s, 032.2C,00002191
2021-09-02 00:22:55 r, 19.52m,0000000001Hz,0000351320c,0000000.762s, 032.2C,00002191
2021-09-02 00:32:56 r, 19.67m,0000000001Hz,0000403117c,0000000.875s, 032.2C,00002191
2021-09-02 00:42:54 r, 19.76m,0000000001Hz,0000436736c,0000000.948s, 032.2C,00002191
2021-09-02 00:52:56 r, 19.85m,0000000001Hz,0000471189c,0000001.023s, 032.2C,00002191
2021-09-02 01:02:55 r, 19.93m,0000000001Hz,0000508695c,0000001.104s, 032.2C,00002191
2021-09-02 01:12:54 r, 20.01m,0000000001Hz,0000549004c,0000001.191s, 032.2C,00002191
2021-09-02 01:22:57 r, 19.95m,0000000001Hz,0000521083c,0000001.131s, 032.2C,00002191
2021-09-02 01:32:55 r, 19.90m,0000000001Hz,0000494393c,0000001.073s, 032.2C,00002191
2021-09-02 01:42:54 r, 19.88m,0000000001Hz,0000483956c,0000001.050s, 032.2C,00002191
2021-09-02 01:52:57 r, 19.97m,0000000001Hz,0000529160c,0000001.148s, 032.2C,00002191
2021-09-02 02:02:55 r, 19.96m,0000000001Hz,0000526000c,0000001.141s, 032.2C,00002191
2021-09-02 02:12:54 r, 20.05m,0000000001Hz,0000570119c,0000001.237s, 032.2C,00002191
2021-09-02 02:22:55 r, 20.22m,0000000001Hz,0000661207c,0000001.435s, 032.2C,00002191
2021-09-02 02:32:56 r, 20.01m,0000000001Hz,0000550948c,0000001.196s, 031.9C,00002191
2021-09-02 02:42:54 r, 19.83m,0000000001Hz,0000464773c,0000001.009s, 031.5C,00002191
2021-09-02 02:52:56 r, 19.54m,0000000002Hz,0000355322c,0000000.771s, 031.2C,00002191
2021-09-02 03:02:55 r, 19.84m,0000000001Hz,0000468352c,0000001.016s, 031.2C,00002191
2021-09-02 03:12:54 r, 20.09m,0000000001Hz,0000590260c,0000001.281s, 030.9C,00002191
2021-09-02 03:22:55 r, 20.18m,0000000001Hz,0000645120c,0000001.400s, 030.9C,00002191
2021-09-02 03:32:57 r, 20.26m,0000000001Hz,0000695235c,0000001.509s, 030.6C,00002191
2021-09-02 03:42:54 r, 20.19m,0000000001Hz,0000651640c,0000001.414s, 030.6C,00002191
2021-09-02 03:52:57 r, 20.11m,0000000000Hz,0000605498c,0000001.314s, 030.2C,00002191
2021-09-02 04:02:55 r, 19.88m,0000000001Hz,0000491354c,0000001.066s, 030.2C,00002191
2021-09-02 04:12:54 r, 19.90m,0000000001Hz,0000498864c,0000001.083s, 030.2C,00002191
2021-09-02 04:22:57 r, 20.07m,0000000000Hz,0000583770c,0000001.267s, 030.2C,00002191
2021-09-02 04:32:55 r, 19.68m,0000000001Hz,0000407317c,0000000.884s, 030.2C,00002191
2021-09-02 04:42:54 r, 19.80m,0000000001Hz,0000458621c,0000000.995s, 030.6C,00002191
2021-09-02 04:52:55 r, 19.81m,0000000001Hz,0000458904c,0000000.996s, 030.6C,00002191
2021-09-02 05:02:57 r, 19.90m,0000000001Hz,0000498490c,0000001.082s, 030.6C,00002191
2021-09-02 05:12:54 r, 19.91m,0000000001Hz,0000500393c,0000001.086s, 030.6C,00002191
2021-09-02 05:22:56 r, 19.88m,0000000001Hz,0000487597c,0000001.058s, 030.6C,00002191
2021-09-02 05:32:55 r, 19.48m,0000000002Hz,0000340024c,0000000.738s, 030.6C,00002191
2021-09-02 05:42:54 r, 18.62m,0000000003Hz,0000154505c,0000000.335s, 030.6C,00002191
2021-09-02 05:52:57 r, 17.29m,0000000010Hz,0000045291c,0000000.098s, 030.6C,00002191
2021-09-02 06:02:55 r, 15.57m,0000000049Hz,0000009243c,0000000.020s, 030.6C,00002191
2021-09-02 06:12:54 r, 13.61m,0000000304Hz,0000000000c,0000000.000s, 030.2C,00002191
2021-09-02 06:22:57 r, 11.57m,0000001993Hz,0000000000c,0000000.000s, 030.6C,00002191
2021-09-02 06:32:55 r, 09.77m,0000010459Hz,0000000000c,0000000.000s, 030.2C,00002191
2021-09-02 06:42:54 r, 08.50m,0000033685Hz,0000000000c,0000000.000s, 030.2C,00002191
2021-09-02 06:52:55 r, 07.55m,0000081202Hz,0000000000c,0000000.000s, 030.2C,00002191
2021-09-02 07:02:56 r, 06.69m,0000178670Hz,0000000000c,0000000.000s, 030.6C,00002191
2021-09-02 07:12:54 r, 06.12m,0000301411Hz,0000000000c,0000000.000s, 030.6C,00002191
2021-09-02 07:22:56 r, 00.00m,0000566597Hz,0000000000c,0000000.000s, 030.6C,00002191
2021-09-02 07:32:55 r, 00.00m,0000454409Hz,0000000000c,0000000.000s, 030.9C,00002191
2021-09-02 07:42:54 r, 00.00m,0000596314Hz,0000000000c,0000000.000s, 030.9C,00002191
2021-09-02 07:52:55 r, 00.00m,0000596226Hz,0000000000c,0000000.000s, 031.2C,00002191
2021-09-02 08:02:57 r, 00.00m,0000596215Hz,0000000000c,0000000.000s, 031.5C,00002191
2021-09-02 08:12:54 r, 00.00m,0000596219Hz,0000000000c,0000000.000s, 031.5C,00002191
2021-09-02 08:22:57 r, 00.00m,0000596216Hz,0000000000c,0000000.000s, 031.9C,00002191
2021-09-02 08:32:55 r, 00.00m,0000596158Hz,0000000000c,0000000.000s, 031.9C,00002191
2021-09-02 08:42:54 r, 00.00m,0000596181Hz,0000000000c,0000000.000s, 032.2C,00002191
2021-09-02 08:52:55 r, 00.00m,0000596073Hz,0000000000c,0000000.000s, 032.5C,00002191
2021-09-02 09:02:56 r, 00.00m,0000595985Hz,0000000000c,0000000.000s, 032.8C,00002191
2021-09-02 09:12:54 r, 00.00m,0000596047Hz,0000000000c,0000000.000s, 033.1C,00002191
2021-09-02 09:22:56 r, 00.00m,0000595920Hz,0000000000c,0000000.000s, 033.5C,00002191
2021-09-02 09:32:55 r, 00.00m,0000595926Hz,0000000000c,0000000.000s, 033.5C,00002191
2021-09-02 09:42:54 r, 00.00m,0000595877Hz,0000000000c,0000000.000s, 033.8C,00002191
2021-09-02 09:52:55 r, 00.00m,0000595903Hz,0000000000c,0000000.000s, 033.8C,00002191
2021-09-02 10:02:57 r, 00.00m,0000595949Hz,0000000000c,0000000.000s, 033.8C,00002191
2021-09-02 10:12:54 r, 00.00m,0000596063Hz,0000000000c,0000000.000s, 033.5C,00002191
2021-09-02 10:22:57 r, 00.00m,0000596046Hz,0000000000c,0000000.000s, 032.8C,00002191
2021-09-02 10:32:55 r, 00.00m,0000595999Hz,0000000000c,0000000.000s, 033.1C,00002191
2021-09-02 10:42:54 r, 00.00m,0000595865Hz,0000000000c,0000000.000s, 033.1C,00002191
2021-09-02 10:52:54 r, 00.00m,0000595811Hz,0000000000c,0000000.000s, 033.8C,00002191
2021-09-02 11:02:55 r, 00.00m,0000595855Hz,0000000000c,0000000.000s, 034.1C,00002191
2021-09-02 11:12:54 r, 00.00m,0000595808Hz,0000000000c,0000000.000s, 034.8C,00002191
2021-09-02 11:22:54 r, 00.00m,0000595563Hz,0000000000c,0000000.000s, 036.0C,00002191
2021-09-02 11:32:56 r, 00.00m,0000595217Hz,0000000000c,0000000.000s, 037.7C,00002191
2021-09-02 11:42:54 r, 00.00m,0000595199Hz,0000000000c,0000000.000s, 038.6C,00002191
2021-09-02 11:52:54 r, 00.00m,0000595164Hz,0000000000c,0000000.000s, 039.3C,00002191
2021-09-02 12:02:57 r, 00.00m,0000595005Hz,0000000000c,0000000.000s, 039.9C,00002191
2021-09-02 12:12:54 r, 00.00m,0000594974Hz,0000000000c,0000000.000s, 040.2C,00002191
2021-09-02 12:22:54 r, 00.00m,0000594916Hz,0000000000c,0000000.000s, 040.2C,00002191
2021-09-02 12:32:55 r, 00.00m,0000594914Hz,0000000000c,0000000.000s, 039.9C,00002191
2021-09-02 12:42:54 r, 00.00m,0000594882Hz,0000000000c,0000000.000s, 040.2C,00002191
2021-09-02 12:52:54 r, 00.00m,0000594948Hz,0000000000c,0000000.000s, 039.9C,00002191
2021-09-02 13:02:55 r, 00.00m,0000594949Hz,0000000000c,0000000.000s, 040.2C,00002191
2021-09-02 13:12:55 r, 00.00m,0000595025Hz,0000000000c,0000000.000s, 039.9C,00002191
2021-09-02 13:22:54 r, 00.00m,0000595185Hz,0000000000c,0000000.000s, 039.3C,00002191
2021-09-02 13:32:56 r, 00.00m,0000595329Hz,0000000000c,0000000.000s, 037.7C,00002191
2021-09-02 13:42:55 r, 00.00m,0000595664Hz,0000000000c,0000000.000s, 036.0C,00002191
2021-09-02 13:52:55 r, 00.00m,0000595770Hz,0000000000c,0000000.000s, 035.1C,00002191
2021-09-02 14:02:57 r, 00.00m,0000595821Hz,0000000000c,0000000.000s, 034.1C,00002191
2021-09-02 14:12:54 r, 00.00m,0000595984Hz,0000000000c,0000000.000s, 033.1C,00002191
2021-09-02 14:22:55 r, 00.00m,0000595978Hz,0000000000c,0000000.000s, 032.5C,00002191
2021-09-02 14:32:57 r, 00.00m,0000596187Hz,0000000000c,0000000.000s, 031.2C,00002191
2021-09-02 14:42:55 r, 00.00m,0000596187Hz,0000000000c,0000000.000s, 030.6C,00002191
2021-09-02 14:52:55 r, 00.00m,0000596238Hz,0000000000c,0000000.000s, 030.6C,00002191
2021-09-02 15:02:55 r, 00.00m,0000596199Hz,0000000000c,0000000.000s, 030.2C,00002191
2021-09-02 15:12:55 r, 00.00m,0000596195Hz,0000000000c,0000000.000s, 030.6C,00002191
2021-09-02 15:22:55 r, 00.00m,0000596284Hz,0000000000c,0000000.000s, 030.2C,00002191
2021-09-02 15:32:55 r, 00.00m,0000596313Hz,0000000000c,0000000.000s, 029.9C,00002191
2021-09-02 15:42:55 r, 00.00m,0000596307Hz,0000000000c,0000000.000s, 029.9C,00002191
2021-09-02 15:52:55 r, 00.00m,0000596291Hz,0000000000c,0000000.000s, 029.6C,00002191
2021-09-02 16:02:57 r, 00.00m,0000596332Hz,0000000000c,0000000.000s, 029.9C,00002191
2021-09-02 16:12:55 r, 00.00m,0000596357Hz,0000000000c,0000000.000s, 029.6C,00002191
2021-09-02 16:22:55 r, 00.00m,0000596399Hz,0000000000c,0000000.000s, 029.9C,00002191
2021-09-02 16:32:57 r, 00.00m,0000596293Hz,0000000000c,0000000.000s, 029.9C,00002191
2021-09-02 16:42:55 r, 00.00m,0000596254Hz,0000000000c,0000000.000s, 030.2C,00002191
2021-09-02 16:52:55 r, 00.00m,0000596275Hz,0000000000c,0000000.000s, 030.2C,00002191
2021-09-02 17:02:55 r, 00.00m,0000596366Hz,0000000000c,0000000.000s, 030.2C,00002191
2021-09-02 17:12:56 r, 00.00m,0000596322Hz,0000000000c,0000000.000s, 030.2C,00002191
2021-09-02 17:22:55 r, 00.00m,0000596437Hz,0000000000c,0000000.000s, 030.2C,00002191
2021-09-02 17:32:56 r, 00.00m,0000596393Hz,0000000000c,0000000.000s, 030.2C,00002191
2021-09-02 17:42:55 r, 00.00m,0000596477Hz,0000000000c,0000000.000s, 029.9C,00002191
2021-09-02 17:52:55 r, 00.00m,0000596380Hz,0000000000c,0000000.000s, 030.2C,00002191
2021-09-02 18:02:55 r, 00.00m,0000596432Hz,0000000000c,0000000.000s, 030.2C,00002191
2021-09-02 18:12:57 r, 00.00m,0000596376Hz,0000000000c,0000000.000s, 030.6C,00002191
2021-09-02 18:22:55 r, 00.00m,0000590517Hz,0000000000c,0000000.000s, 030.6C,00002191
2021-09-02 18:32:57 r, 00.00m,0000596373Hz,0000000000c,0000000.000s, 030.6C,00002191
2021-09-02 18:42:55 r, 00.00m,0000596282Hz,0000000000c,0000000.000s, 031.2C,00002191
2021-09-02 18:52:55 r, 00.00m,0000596198Hz,0000000000c,0000000.000s, 031.9C,00002191
2021-09-02 19:02:57 r, 00.00m,0000595994Hz,0000000000c,0000000.000s, 032.5C,00002191
2021-09-02 19:12:55 r, 00.00m,0000596242Hz,0000000000c,0000000.000s, 032.5C,00002191
2021-09-02 19:22:55 r, 00.00m,0000587333Hz,0000000000c,0000000.000s, 032.2C,00002191
2021-09-02 19:32:55 r, 05.98m,0000342868Hz,0000000000c,0000000.000s, 031.5C,00002191
2021-09-02 19:42:57 r, 06.06m,0000318896Hz,0000000000c,0000000.000s, 031.2C,00002191
2021-09-02 19:52:55 r, 06.74m,0000170212Hz,0000000000c,0000000.000s, 031.2C,00002191
2021-09-02 20:02:56 r, 07.39m,0000094029Hz,0000000000c,0000000.000s, 030.9C,00002191
2021-09-02 20:12:56 r, 08.37m,0000037977Hz,0000000000c,0000000.000s, 030.9C,00002191
2021-09-02 20:22:55 r, 09.67m,0000011430Hz,0000000000c,0000000.000s, 030.6C,00002191
2021-09-02 20:32:57 r, 11.64m,0000001863Hz,0000000000c,0000000.000s, 030.6C,00002191
2021-09-02 20:42:55 r, 13.60m,0000000306Hz,0000000000c,0000000.000s, 030.2C,00002191
2021-09-02 20:52:55 r, 15.82m,0000000040Hz,0000011619c,0000000.025s, 030.2C,00002191
2021-09-02 21:02:57 r, 17.40m,0000000009Hz,0000050038c,0000000.109s, 030.2C,00002191
2021-09-02 21:12:55 r, 18.86m,0000000002Hz,0000191081c,0000000.415s, 029.9C,00002191
2021-09-02 21:22:55 r, 19.83m,0000000001Hz,0000463891c,0000001.007s, 029.9C,00002191
2021-09-02 21:32:55 r, 20.38m,0000000001Hz,0000773205c,0000001.678s, 029.6C,00002191
2021-09-02 21:42:56 r, 20.64m,0000000000Hz,0000978592c,0000002.124s, 029.6C,00002191
2021-09-02 21:52:55 r, 19.96m,0000000001Hz,0000527158c,0000001.144s, 029.3C,00002191
2021-09-02 22:02:56 r, 19.99m,0000000001Hz,0000542621c,0000001.178s, 029.6C,00002191
2021-09-02 22:12:55 r, 20.00m,0000000001Hz,0000548224c,0000001.190s, 029.6C,00002191
2021-09-02 22:22:55 r, 20.29m,0000000001Hz,0000715872c,0000001.554s, 029.9C,00002191
2021-09-02 22:32:56 r, 20.29m,0000000000Hz,0000714823c,0000001.551s, 029.9C,00002191
2021-09-02 22:42:57 r, 20.25m,0000000001Hz,0000691377c,0000001.500s, 029.9C,00002191
2021-09-02 22:52:55 r, 20.33m,0000000000Hz,0000738756c,0000001.603s, 029.9C,00002191
2021-09-02 23:02:58 r, 20.32m,0000000001Hz,0000733168c,0000001.591s, 029.9C,00002191
2021-09-02 23:12:56 r, 20.40m,0000000000Hz,0000793301c,0000001.722s, 029.9C,00002191
2021-09-02 23:22:55 r, 20.15m,0000000000Hz,0000627825c,0000001.362s, 029.9C,00002191
2021-09-02 23:32:56 r, 20.29m,0000000000Hz,0000716567c,0000001.555s, 029.9C,00002191
2021-09-02 23:42:57 r, 20.15m,0000000000Hz,0000626203c,0000001.359s, 029.9C,00002191
2021-09-02 23:52:55 r, 20.27m,0000000000Hz,0000698041c,0000001.515s, 029.9C,00002191
